Total_Precipitation_Accumulation
2.34 2.42 2.35 2.29 2.27 2.20 2.23 2.44 2.60 2.42 2.20 1.98 1.83 1.79 1.82 1.72 1.79 1.57 1.49 1.39 1.21 1.20 1.25 1.24 1.42 1.77 2.07 2.32 2.54 2.55 2.73 2.90 2.99 3.15 3.21 3.15 3.16 3.07
2.33 2.45 2.49 2.44 2.46 2.40 2.30 2.30 2.28 2.34 2.22 1.96 1.79 1.74 1.90 1.78 1.91 1.59 1.52 1.69 1.44 1.37 1.30 1.17 1.17 1.26 1.41 1.65 1.96 2.12 2.17 2.22 2.28 2.55 2.82 2.88 2.83 2.73
2.12 2.24 2.38 2.44 2.55 2.59 2.61 2.51 2.39 2.35 2.25 2.04 1.86 1.78 1.97 2.00 1.92 1.79 1.61 1.53 1.51 1.51 1.40 1.33 1.25 1.15 1.19 1.29 1.56 1.81 2.03 1.90 1.71 1.81 2.05 2.19 2.43 2.56
2.01 1.98 2.06 2.14 2.27 2.43 2.54 2.51 2.53 2.43 2.35 2.32 2.13 1.90 1.81 1.89 1.95 2.03 1.89 1.63 1.55 1.65 1.58 1.48 1.41 1.28 1.17 1.16 1.28 1.39 1.58 1.67 1.47 1.33 1.41 1.53 1.67 1.95
1.85 1.75 1.74 1.84 1.96 2.11 2.19 2.31 2.47 2.50 2.50 2.45 2.39 2.19 1.92 1.91 1.99 2.05 2.04 2.07 1.77 1.67 1.68 1.63 1.57 1.53 1.42 1.24 1.16 1.19 1.20 1.29 1.31 1.18 1.09 1.19 1.26 1.44
1.56 1.51 1.49 1.53 1.62 1.79 1.92 2.13 2.34 2.46 2.53 2.53 2.48 2.25 2.05 1.98 1.96 2.03 2.14 2.18 2.11 1.84 1.73 1.65 1.73 1.67 1.52 1.39 1.25 1.19 1.20 1.21 1.24 1.26 1.09 1.00 1.02 1.07
1.38 1.22 1.18 1.25 1.28 1.39 1.39 1.68 1.96 2.17 2.29 2.36 2.36 2.21 2.00 1.90 1.77 1.82 1.97 2.14 2.19 2.11 2.00 1.73 1.65 1.58 1.54 1.52 1.42 1.32 1.25 1.30 1.30 1.32 1.32 1.17 1.12 1.08
1.22 1.11 1.04 1.07 1.00 1.00 1.03 1.27 1.59 1.74 1.90 2.09 2.16 2.04 1.87 1.79 1.85 1.85 1.85 1.90 1.92 1.83 1.80 1.80 1.70 1.61 1.56 1.52 1.55 1.51 1.40 1.36 1.42 1.41 1.43 1.40 1.31 1.30
1.18 1.20 1.09 1.00 1.10 0.97 0.94 1.04 1.13 1.25 1.40 1.66 1.87 1.85 1.95 1.87 1.77 1.69 1.71 1.75 1.74 1.78 1.78 1.77 1.66 1.56 1.46 1.44 1.59 1.49 1.48 1.44 1.47 1.53 1.48 1.53 1.49 1.42
1.23 1.31 1.32 1.22 1.19 1.27 1.17 1.17 1.13 1.06 1.16 1.07 1.24 1.63 1.80 1.88 1.84 1.86 1.95 1.88 1.71 1.71 1.72 1.72 1.62 1.50 1.36 1.28 1.40 1.31 1.24 1.24 1.34 1.54 1.64 1.65 1.71 1.66
1.13 1.27 1.33 1.23 1.34 1.47 1.51 1.51 1.42 1.24 1.36 1.36 1.24 1.34 1.52 1.60 1.72 1.79 1.84 1.77 1.69 1.58 1.45 1.42 1.34 1.37 1.41 1.33 1.28 1.33 1.24 1.19 1.17 1.20 1.32 1.42 1.56 1.73
1.15 1.20 1.39 1.30 1.31 1.30 1.34 1.45 1.42 1.25 1.10 1.11 1.07 0.97 0.91 1.04 1.28 1.40 1.67 1.80 1.75 1.63 1.41 1.36 1.37 1.36 1.38 1.27 1.17 1.20 1.21 1.28 1.27 1.20 1.23 1.31 1.43 1.50
1.22 1.25 1.24 1.37 1.24 1.19 1.17 1.14 1.25 1.27 1.25 1.28 1.31 1.17 1.04 0.99 1.03 1.10 1.31 1.57 1.72 1.61 1.43 1.33 1.37 1.38 1.30 1.14 1.08 1.09 1.10 1.09 1.13 1.21 1.26 1.37 1.45 1.41
1.06 1.07 1.05 1.19 1.05 0.99 0.93 0.98 1.10 1.16 1.22 1.35 1.34 1.26 1.21 1.13 1.10 1.13 1.19 1.31 1.40 1.47 1.48 1.46 1.43 1.39 1.34 1.18 1.08 1.05 1.05 1.03 1.00 1.05 1.10 1.36 1.52 1.59
0.77 0.92 0.97 0.97 0.92 0.84 0.90 0.95 0.98 1.01 1.12 1.20 1.20 1.14 1.14 1.20 1.21 1.19 1.21 1.25 1.23 1.16 1.17 1.24 1.37 1.43 1.42 1.30 1.13 1.07 1.07 1.02 0.95 0.96 1.03 1.11 1.19 1.36
0.69 0.76 0.81 0.82 0.82 0.83 0.86 0.91 0.94 0.98 1.04 1.07 1.06 1.08 1.09 1.16 1.24 1.22 1.22 1.29 1.33 1.24 1.15 1.18 1.29 1.43 1.44 1.33 1.26 1.16 1.12 1.09 1.01 0.98 0.99 1.06 1.15 1.24
0.80 0.74 0.72 0.74 0.76 0.83 0.87 0.87 0.91 0.96 0.96 0.94 0.98 1.01 1.01 1.06 1.11 1.11 1.16 1.21 1.23 1.15 1.11 1.17 1.25 1.35 1.39 1.39 1.41 1.29 1.25 1.25 1.21 1.18 1.14 1.11 1.10 1.17
0.82 0.87 0.88 0.93 0.97 0.97 0.94 0.87 0.84 0.87 0.93 0.99 1.01 1.03 1.03 1.00 1.03 1.06 1.10 1.19 1.21 1.10 1.01 1.05 1.18 1.32 1.34 1.22 1.13 1.12 1.16 1.18 1.24 1.32 1.28 1.22 1.14 1.14
0.79 0.94 0.96 0.93 0.90 0.91 0.87 0.81 0.74 0.73 0.78 0.89 1.00 1.09 1.11 1.09 1.12 1.16 1.16 1.12 1.11 1.10 1.03 0.99 1.07 1.25 1.31 1.09 0.93 0.91 0.96 1.02 1.12 1.20 1.23 1.16 1.09 1.12
0.77 0.85 0.86 0.84 0.79 0.74 0.70 0.66 0.67 0.66 0.67 0.73 0.77 0.86 1.03 1.14 1.21 1.25 1.28 1.32 1.30 1.25 1.18 1.08 1.02 1.07 1.19 1.17 1.00 0.84 0.85 0.95 1.07 1.11 1.12 1.14 1.12 1.17
0.68 0.68 0.65 0.64 0.64 0.63 0.62 0.64 0.69 0.69 0.69 0.71 0.70 0.73 0.85 1.00 1.18 1.27 1.32 1.41 1.39 1.35 1.33 1.21 1.16 1.29 1.24 1.28 1.22 0.94 0.81 0.90 1.02 1.04 1.08 1.18 1.19 1.13
0.63 0.63 0.64 0.63 0.61 0.61 0.62 0.64 0.71 0.74 0.71 0.73 0.77 0.81 0.90 0.97 1.02 1.11 1.27 1.33 1.26 1.22 1.22 1.23 1.27 1.33 1.33 1.40 1.31 1.10 0.97 0.92 0.99 1.08 1.11 1.16 1.17 1.16
0.61 0.62 0.64 0.63 0.62 0.66 0.67 0.68 0.72 0.76 0.76 0.76 0.78 0.84 0.92 1.00 1.05 1.07 1.10 1.16 1.21 1.25 1.26 1.25 1.25 1.28 1.32 1.37 1.44 1.38 1.24 1.13 1.08 1.09 1.08 1.19 1.16 1.03